SWR3DC EDDL-LSZH

Flight info

Callsign SWR3DC
Flight time 0h 52m
Altitude 27000
Route DODEN1T/23L DODEN Y852 TUSUK DCT ULNOK L607 SUNEG T721 RILAX
Aircraft A320/M-SDE3FGHIRWY/LB1

Departure

Time 2026-05-04 19:29
Airport Düsseldorf Airport (EDDL)

Arrival

Time 2026-05-04 20:21
Airport Zürich Airport (LSZH)
Time Latitude Longitude Altitude Speed Heading
2026-05-04 18:06 51.28068 6.76534 126 ft 0 kts 96°
2026-05-04 19:07 51.28069 6.76499 124 ft 4 kts 83°
2026-05-04 19:07 51.28062 6.76463 126 ft 4 kts 34°
2026-05-04 19:07 51.28050 6.76457 125 ft 0 kts 348°
2026-05-04 19:07 51.28068 6.76445 125 ft 3 kts 327°
2026-05-04 19:08 51.28071 6.76442 125 ft 0 kts 327°
2026-05-04 19:10 51.28088 6.76426 124 ft 10 kts 332°
2026-05-04 19:11 51.28156 6.76425 128 ft 9 kts
2026-05-04 19:11 51.28217 6.76439 127 ft 9 kts 14°
2026-05-04 19:11 51.28275 6.76495 124 ft 11 kts 23°
2026-05-04 19:11 51.28375 6.76537 125 ft 20 kts 48°
2026-05-04 19:12 51.28481 6.76757 124 ft 26 kts 52°
2026-05-04 19:12 51.28706 6.77230 128 ft 28 kts 53°
2026-05-04 19:12 51.28825 6.77479 128 ft 29 kts 52°
2026-05-04 19:13 51.28922 6.77681 126 ft 19 kts 52°
2026-05-04 19:13 51.28996 6.77840 127 ft 17 kts 52°
2026-05-04 19:13 51.29063 6.77979 128 ft 16 kts 52°
2026-05-04 19:13 51.29125 6.78112 133 ft 14 kts 54°
2026-05-04 19:14 51.29187 6.78206 136 ft 11 kts 24°
2026-05-04 19:14 51.29251 6.78197 137 ft 9 kts 329°
2026-05-04 19:14 51.29257 6.78189 137 ft 0 kts 322°
2026-05-04 19:27 51.29279 6.78161 138 ft 11 kts 322°
2026-05-04 19:27 51.29327 6.78087 140 ft 8 kts 288°
2026-05-04 19:27 51.29314 6.78039 139 ft 0 kts 231°
2026-05-04 19:28 51.29305 6.78021 138 ft 18 kts 231°
2026-05-04 19:28 51.29053 6.77498 128 ft 95 kts 233°
2026-05-04 19:28 51.28534 6.76409 142 ft 148 kts 231°
2026-05-04 19:29 51.27917 6.75112 769 ft 145 kts 229°
2026-05-04 19:29 51.27314 6.73819 1452 ft 145 kts 232°
2026-05-04 19:29 51.26711 6.72516 2011 ft 151 kts 231°
2026-05-04 19:29 51.26040 6.71075 2308 ft 172 kts 231°
2026-05-04 19:30 51.25299 6.69487 2610 ft 190 kts 232°
2026-05-04 19:30 51.24467 6.67702 2920 ft 211 kts 232°
2026-05-04 19:30 51.23539 6.65712 3299 ft 236 kts 232°
2026-05-04 19:30 51.22284 6.63897 3823 ft 254 kts 203°
2026-05-04 19:31 51.20530 6.63494 4661 ft 260 kts 178°
2026-05-04 19:31 51.18712 6.63705 5575 ft 264 kts 175°
2026-05-04 19:31 51.16874 6.64030 6484 ft 267 kts 173°
2026-05-04 19:31 51.15085 6.64862 7307 ft 273 kts 150°
2026-05-04 19:32 51.13705 6.66949 8191 ft 279 kts 125°
2026-05-04 19:32 51.13070 6.69901 9104 ft 291 kts 97°
2026-05-04 19:32 51.13119 6.73164 9757 ft 298 kts 90°
2026-05-04 19:32 51.13250 6.76463 9939 ft 298 kts 90°
2026-05-04 19:33 51.13397 6.79843 10210 ft 317 kts 89°
2026-05-04 19:33 51.13549 6.83470 10486 ft 339 kts 89°
2026-05-04 19:33 51.13701 6.87284 11046 ft 349 kts 89°
2026-05-04 19:33 51.13853 6.91120 11763 ft 354 kts 89°
2026-05-04 19:34 51.14003 6.95051 12499 ft 358 kts 89°
2026-05-04 19:34 51.14152 6.99076 13231 ft 362 kts 89°
2026-05-04 19:34 51.14298 7.03103 13939 ft 366 kts 89°
2026-05-04 19:34 51.14443 7.07166 14576 ft 369 kts 89°
2026-05-04 19:35 51.14583 7.11216 15212 ft 373 kts 89°
2026-05-04 19:35 51.14725 7.15413 15816 ft 377 kts 90°
2026-05-04 19:35 51.14514 7.19508 16361 ft 377 kts 107°
2026-05-04 19:35 51.13540 7.23377 16977 ft 376 kts 120°
2026-05-04 19:36 51.12718 7.25874 17385 ft 378 kts 120°
2026-05-04 19:36 51.11075 7.30800 18215 ft 383 kts 121°
2026-05-04 19:36 51.09815 7.34553 18728 ft 387 kts 121°
2026-05-04 19:36 51.08540 7.38349 19220 ft 391 kts 121°
2026-05-04 19:37 51.07674 7.40933 19576 ft 393 kts 121°
2026-05-04 19:37 51.06384 7.44783 20079 ft 396 kts 121°
2026-05-04 19:37 51.05096 7.48622 20569 ft 400 kts 121°
2026-05-04 19:37 51.03783 7.52533 21078 ft 403 kts 121°
2026-05-04 19:38 51.02454 7.56477 21546 ft 406 kts 121°
2026-05-04 19:38 51.01110 7.60453 21987 ft 410 kts 121°
2026-05-04 19:38 50.99751 7.64474 22465 ft 413 kts 121°
2026-05-04 19:38 50.98374 7.68487 22929 ft 415 kts 124°
2026-05-04 19:39 50.96690 7.72204 23386 ft 415 kts 134°
2026-05-04 19:39 50.94630 7.75395 23796 ft 414 kts 144°
2026-05-04 19:39 50.92276 7.77993 24198 ft 413 kts 151°
2026-05-04 19:39 50.89831 7.80390 24621 ft 414 kts 152°
2026-05-04 19:40 50.87380 7.82793 25042 ft 415 kts 152°
2026-05-04 19:40 50.84916 7.85208 25442 ft 417 kts 152°
2026-05-04 19:40 50.82448 7.87627 25757 ft 417 kts 152°
2026-05-04 19:40 50.79986 7.90045 26006 ft 417 kts 152°
2026-05-04 19:41 50.77518 7.92463 26254 ft 418 kts 152°
2026-05-04 19:41 50.75047 7.94878 26508 ft 419 kts 152°
2026-05-04 19:41 50.72565 7.97309 26753 ft 420 kts 152°
2026-05-04 19:41 50.70074 7.99743 26951 ft 422 kts 152°
2026-05-04 19:42 50.67579 8.02175 27011 ft 422 kts 152°
2026-05-04 19:42 50.65077 8.04610 26994 ft 422 kts 152°
2026-05-04 19:42 50.62549 8.06954 26993 ft 420 kts 157°
2026-05-04 19:42 50.59867 8.08687 26987 ft 415 kts 166°
2026-05-04 19:43 50.57067 8.09703 26996 ft 412 kts 175°
2026-05-04 19:43 50.54223 8.10109 26992 ft 410 kts 178°
2026-05-04 19:43 50.51376 8.10459 26994 ft 411 kts 178°
2026-05-04 19:43 50.48530 8.10826 26996 ft 411 kts 178°
2026-05-04 19:44 50.45681 8.11205 27003 ft 411 kts 178°
2026-05-04 19:44 50.42875 8.11580 27004 ft 411 kts 178°
2026-05-04 19:44 50.40027 8.11957 27003 ft 411 kts 178°
2026-05-04 19:44 50.37177 8.12337 26992 ft 411 kts 178°
2026-05-04 19:45 50.34329 8.12718 26986 ft 411 kts 177°
2026-05-04 19:45 50.31479 8.13097 26982 ft 411 kts 177°
2026-05-04 19:45 50.28626 8.13474 26980 ft 411 kts 178°
2026-05-04 19:45 50.25772 8.13846 26979 ft 411 kts 178°
2026-05-04 19:46 50.22922 8.14216 26979 ft 411 kts 178°
2026-05-04 19:46 50.20068 8.14583 26976 ft 412 kts 178°
2026-05-04 19:46 50.17216 8.14953 26976 ft 412 kts 176°
2026-05-04 19:46 50.14391 8.15754 26974 ft 415 kts 167°
2026-05-04 19:47 50.11672 8.17303 26968 ft 418 kts 158°
2026-05-04 19:47 50.09123 8.19532 26968 ft 420 kts 152°
2026-05-04 19:47 50.06618 8.21872 26966 ft 420 kts 153°
2026-05-04 19:47 50.04108 8.24200 26956 ft 421 kts 153°
2026-05-04 19:48 50.01594 8.26523 26968 ft 418 kts 153°
2026-05-04 19:48 49.99105 8.28822 26971 ft 416 kts 153°
2026-05-04 19:48 49.96617 8.31113 26970 ft 415 kts 153°
2026-05-04 19:48 49.94129 8.33397 26973 ft 415 kts 153°
2026-05-04 19:49 49.91645 8.35672 26979 ft 415 kts 153°
2026-05-04 19:49 49.89164 8.37945 26979 ft 415 kts 153°
2026-05-04 19:49 49.86680 8.40225 26980 ft 413 kts 153°
2026-05-04 19:49 49.84312 8.42785 26979 ft 417 kts 144°
2026-05-04 19:50 49.82193 8.45805 26976 ft 419 kts 141°
2026-05-04 19:50 49.80074 8.48903 26976 ft 419 kts 141°
2026-05-04 19:50 49.77952 8.51999 26976 ft 419 kts 141°
2026-05-04 19:50 49.75835 8.55087 26978 ft 419 kts 141°
2026-05-04 19:51 49.73613 8.57970 26987 ft 414 kts 149°
2026-05-04 19:51 49.71143 8.60192 26979 ft 409 kts 159°
2026-05-04 19:51 49.68491 8.61708 26981 ft 405 kts 168°
2026-05-04 19:51 49.65748 8.62570 26982 ft 402 kts 173°
2026-05-04 19:52 49.62990 8.63323 26982 ft 402 kts 173°
2026-05-04 19:52 49.60233 8.64089 26983 ft 402 kts 173°
2026-05-04 19:52 49.57477 8.64868 26987 ft 402 kts 172°
2026-05-04 19:52 49.54726 8.65644 26990 ft 402 kts 173°
2026-05-04 19:53 49.51970 8.66413 26993 ft 402 kts 173°
2026-05-04 19:53 49.49217 8.67174 26995 ft 402 kts 173°
2026-05-04 19:53 49.46480 8.68138 26994 ft 405 kts 165°
2026-05-04 19:53 49.43856 8.69764 26992 ft 408 kts 159°
2026-05-04 19:54 49.41271 8.71575 26988 ft 408 kts 159°
2026-05-04 19:54 49.38686 8.73379 26989 ft 408 kts 159°
2026-05-04 19:54 49.36103 8.75172 26991 ft 407 kts 159°
2026-05-04 19:54 49.33526 8.76958 26986 ft 407 kts 159°
2026-05-04 19:55 49.30947 8.78745 26984 ft 406 kts 159°
2026-05-04 19:55 49.28365 8.80535 26981 ft 406 kts 159°
2026-05-04 19:55 49.25793 8.82318 26980 ft 406 kts 159°
2026-05-04 19:55 49.23203 8.84039 26976 ft 404 kts 163°
2026-05-04 19:56 49.20508 8.85134 26969 ft 400 kts 173°
2026-05-04 19:56 49.17749 8.85472 26955 ft 397 kts 183°
2026-05-04 19:56 49.15013 8.85082 26956 ft 394 kts 192°
2026-05-04 19:56 49.12345 8.84347 26957 ft 395 kts 192°
2026-05-04 19:57 49.09638 8.83610 26961 ft 395 kts 191°
2026-05-04 19:57 49.06930 8.82877 26966 ft 395 kts 191°
2026-05-04 19:57 49.04224 8.82147 26967 ft 395 kts 191°
2026-05-04 19:57 49.01517 8.81424 26964 ft 395 kts 191°
2026-05-04 19:58 48.98802 8.80697 26965 ft 395 kts 191°
2026-05-04 19:58 48.96095 8.79963 26966 ft 395 kts 191°
2026-05-04 19:58 48.93390 8.79229 26961 ft 395 kts 191°
2026-05-04 19:58 48.90675 8.78493 26966 ft 395 kts 191°
2026-05-04 19:59 48.87967 8.77756 26967 ft 396 kts 191°
2026-05-04 19:59 48.85256 8.77017 26964 ft 396 kts 191°
2026-05-04 19:59 48.82544 8.76281 26982 ft 399 kts 191°
2026-05-04 19:59 48.79786 8.75539 26994 ft 404 kts 191°
2026-05-04 20:00 48.77016 8.74798 26993 ft 405 kts 191°
2026-05-04 20:00 48.74242 8.74058 26993 ft 405 kts 191°
2026-05-04 20:00 48.71462 8.73318 26995 ft 405 kts 191°
2026-05-04 20:00 48.68687 8.72576 26995 ft 405 kts 191°
2026-05-04 20:01 48.65909 8.71835 26999 ft 405 kts 191°
2026-05-04 20:01 48.63132 8.71096 26998 ft 405 kts 191°
2026-05-04 20:01 48.60354 8.70361 26999 ft 405 kts 191°
2026-05-04 20:01 48.57574 8.69626 27004 ft 405 kts 191°
2026-05-04 20:02 48.54796 8.68890 27002 ft 405 kts 191°
2026-05-04 20:02 48.52054 8.68161 27001 ft 405 kts 191°
2026-05-04 20:02 48.49276 8.67419 26994 ft 402 kts 191°
2026-05-04 20:02 48.46534 8.66689 26236 ft 391 kts 191°
2026-05-04 20:03 48.43906 8.65998 25271 ft 386 kts 191°
2026-05-04 20:03 48.41237 8.65296 24294 ft 382 kts 192°
2026-05-04 20:03 48.38659 8.64620 23319 ft 379 kts 192°
2026-05-04 20:03 48.36076 8.63915 22286 ft 376 kts 192°
2026-05-04 20:04 48.33492 8.63150 21321 ft 371 kts 192°
2026-05-04 20:04 48.30979 8.62375 20420 ft 366 kts 193°
2026-05-04 20:04 48.28483 8.61595 19765 ft 366 kts 192°
2026-05-04 20:04 48.26032 8.60833 19294 ft 363 kts 192°
2026-05-04 20:05 48.23553 8.60076 19039 ft 363 kts 192°
2026-05-04 20:05 48.21074 8.59329 18800 ft 363 kts 192°
2026-05-04 20:05 48.18597 8.58584 18570 ft 362 kts 192°
2026-05-04 20:05 48.16132 8.57846 18349 ft 361 kts 192°
2026-05-04 20:06 48.13667 8.57110 18093 ft 360 kts 191°
2026-05-04 20:06 48.11213 8.56381 17806 ft 357 kts 192°
2026-05-04 20:06 48.08806 8.55667 17073 ft 350 kts 193°
2026-05-04 20:06 48.06430 8.54963 16306 ft 344 kts 193°
2026-05-04 20:07 48.04107 8.54276 15635 ft 335 kts 193°
2026-05-04 20:07 48.01836 8.53603 14903 ft 331 kts 193°
2026-05-04 20:07 47.99589 8.52938 14173 ft 327 kts 193°
2026-05-04 20:07 47.97370 8.52280 13415 ft 323 kts 192°
2026-05-04 20:08 47.95176 8.51630 12636 ft 319 kts 192°
2026-05-04 20:08 47.93020 8.50924 11876 ft 314 kts 195°
2026-05-04 20:08 47.90924 8.50080 11138 ft 310 kts 197°
2026-05-04 20:08 47.88873 8.49176 10551 ft 302 kts 197°
2026-05-04 20:09 47.86961 8.48311 10388 ft 282 kts 197°
2026-05-04 20:09 47.85120 8.47469 9952 ft 273 kts 196°
2026-05-04 20:09 47.83255 8.47207 9340 ft 270 kts 172°
2026-05-04 20:09 47.81524 8.48286 8827 ft 275 kts 145°
2026-05-04 20:10 47.80076 8.50147 8423 ft 275 kts 139°
2026-05-04 20:10 47.78680 8.52093 8037 ft 275 kts 139°
2026-05-04 20:10 47.77288 8.54036 7660 ft 273 kts 139°
2026-05-04 20:10 47.75904 8.55957 7293 ft 272 kts 139°
2026-05-04 20:11 47.74522 8.57864 7038 ft 270 kts 139°
2026-05-04 20:11 47.73138 8.59768 7019 ft 271 kts 139°
2026-05-04 20:11 47.71752 8.61670 7020 ft 272 kts 139°
2026-05-04 20:11 47.70365 8.63572 7023 ft 272 kts 139°
2026-05-04 20:12 47.68974 8.65479 7022 ft 272 kts 139°
2026-05-04 20:12 47.67585 8.67384 7023 ft 272 kts 139°
2026-05-04 20:12 47.66195 8.69284 7025 ft 272 kts 139°
2026-05-04 20:12 47.64806 8.71183 7026 ft 272 kts 139°
2026-05-04 20:13 47.63417 8.73077 7026 ft 272 kts 139°
2026-05-04 20:13 47.62024 8.74976 7004 ft 271 kts 139°
2026-05-04 20:13 47.60630 8.76875 6781 ft 271 kts 139°
2026-05-04 20:13 47.59246 8.78753 6549 ft 270 kts 139°
2026-05-04 20:14 47.57862 8.80624 6303 ft 269 kts 139°
2026-05-04 20:14 47.56497 8.82462 6047 ft 269 kts 139°
2026-05-04 20:14 47.55095 8.84348 5784 ft 269 kts 139°
2026-05-04 20:14 47.53726 8.86182 5539 ft 270 kts 139°
2026-05-04 20:15 47.52333 8.88041 5285 ft 270 kts 139°
2026-05-04 20:15 47.50936 8.89907 5080 ft 270 kts 139°
2026-05-04 20:15 47.49530 8.91751 5004 ft 268 kts 144°
2026-05-04 20:15 47.47902 8.92823 5018 ft 248 kts 172°
2026-05-04 20:16 47.46247 8.92702 5023 ft 236 kts 198°
2026-05-04 20:16 47.44816 8.91588 5025 ft 234 kts 221°
2026-05-04 20:16 47.43834 8.89701 5027 ft 231 kts 246°
2026-05-04 20:16 47.43480 8.87486 5024 ft 217 kts 269°
2026-05-04 20:17 47.43603 8.85334 5026 ft 204 kts 276°
2026-05-04 20:17 47.43756 8.83294 5052 ft 196 kts 275°
2026-05-04 20:17 47.43902 8.81309 4943 ft 194 kts 276°
2026-05-04 20:17 47.44047 8.79341 4696 ft 191 kts 276°
2026-05-04 20:18 47.44190 8.77390 4432 ft 190 kts 276°
2026-05-04 20:18 47.44331 8.75457 4159 ft 188 kts 276°
2026-05-04 20:18 47.44471 8.73540 3885 ft 187 kts 276°
2026-05-04 20:18 47.44609 8.71637 3615 ft 185 kts 276°
2026-05-04 20:19 47.44746 8.69752 3348 ft 184 kts 276°
2026-05-04 20:19 47.44882 8.67877 3080 ft 183 kts 276°
2026-05-04 20:19 47.45014 8.66049 2818 ft 173 kts 275°
2026-05-04 20:19 47.45132 8.64407 2575 ft 155 kts 275°
2026-05-04 20:20 47.45242 8.62888 2341 ft 144 kts 275°
2026-05-04 20:20 47.45348 8.61438 2128 ft 140 kts 275°
2026-05-04 20:20 47.45433 8.60014 1929 ft 139 kts 273°
2026-05-04 20:20 47.45541 8.58608 1697 ft 138 kts 275°
2026-05-04 20:21 47.45643 8.57200 1501 ft 138 kts 275°
2026-05-04 20:21 47.45740 8.55841 1405 ft 122 kts 275°
2026-05-04 20:21 47.45802 8.54406 1399 ft 33 kts 246°
2026-05-04 20:22 47.45749 8.54269 1402 ft 13 kts 233°
2026-05-04 20:22 47.45665 8.54210 1397 ft 15 kts 173°
2026-05-04 20:22 47.45602 8.54328 1405 ft 16 kts 108°
2026-05-04 20:22 47.45575 8.54446 1405 ft 20 kts 109°
2026-05-04 20:23 47.45525 8.54674 1401 ft 26 kts 108°
2026-05-04 20:23 47.45462 8.54954 1398 ft 31 kts 109°
2026-05-04 20:23 47.45390 8.55246 1399 ft 27 kts 110°
2026-05-04 20:23 47.45311 8.55459 1406 ft 21 kts 118°
2026-05-04 20:24 47.45269 8.55650 1400 ft 18 kts 92°
2026-05-04 20:24 47.45257 8.55829 1407 ft 16 kts 96°
2026-05-04 20:24 47.45267 8.55925 1402 ft 6 kts 26°
2026-05-04 20:24 47.45303 8.55940 1407 ft 5 kts
2026-05-04 20:25 47.45329 8.55944 1403 ft 1 kts
2026-05-04 20:25 47.45332 8.55944 1402 ft 0 kts